TimeEST,TemperatureF,Dew PointF,Humidity,Sea Level PressureIn,VisibilityMPH,Wind Direction,Wind SpeedMPH,Gust SpeedMPH,PrecipitationIn,Events,Conditions,WindDirDegrees,DateUTC
12:53 AM,28.0,26.1,92,29.90,4.0,NE,4.6,-,N/A,,Clear,40,2013-12-03 05:53:00
1:53 AM,28.0,25.0,88,29.90,4.0,NNE,4.6,-,N/A,,Clear,30,2013-12-03 06:53:00
2:53 AM,27.0,25.0,92,29.90,5.0,NNE,4.6,-,N/A,,Clear,30,2013-12-03 07:53:00
3:53 AM,28.0,25.0,88,29.90,5.0,NNE,5.8,-,N/A,,Mostly Cloudy,30,2013-12-03 08:53:00
4:53 AM,28.9,26.1,89,29.90,5.0,NE,3.5,-,N/A,,Overcast,50,2013-12-03 09:53:00
5:53 AM,28.9,25.0,85,29.90,6.0,ENE,4.6,-,N/A,,Overcast,60,2013-12-03 10:53:00
6:53 AM,28.9,26.1,89,29.92,5.0,Calm,Calm,-,N/A,,Overcast,0,2013-12-03 11:53:00
7:53 AM,30.0,26.1,85,29.92,4.0,ENE,3.5,-,N/A,,Overcast,60,2013-12-03 12:53:00
8:53 AM,30.9,26.1,82,29.94,5.0,Calm,Calm,-,N/A,,Haze,0,2013-12-03 13:53:00
9:53 AM,32.0,27.0,82,29.94,4.0,East,3.5,-,N/A,,Haze,80,2013-12-03 14:53:00
10:53 AM,35.1,28.0,76,29.94,5.0,Calm,Calm,-,N/A,,Haze,0,2013-12-03 15:53:00
11:03 AM,35.6,28.4,75,29.90,5.0,ESE,3.5,-,N/A,,Haze,120,2013-12-03 16:03:00
11:53 AM,36.0,28.9,76,29.92,5.0,East,3.5,-,N/A,,Haze,90,2013-12-03 16:53:00
12:22 PM,37.4,30.2,75,29.87,5.0,East,4.6,-,N/A,,Haze,90,2013-12-03 17:22:00
12:53 PM,39.9,30.9,70,29.91,5.0,SSW,3.5,-,N/A,,Haze,210,2013-12-03 17:53:00
1:53 PM,41.0,30.0,65,29.92,6.0,Calm,Calm,-,N/A,,Haze,0,2013-12-03 18:53:00
2:05 PM,41.0,30.2,65,29.88,6.0,Calm,Calm,-,N/A,,Haze,0,2013-12-03 19:05:00
2:40 PM,42.8,30.2,61,29.87,6.0,Calm,Calm,-,N/A,,Haze,0,2013-12-03 19:40:00
2:53 PM,41.0,30.9,67,29.92,6.0,NE,3.5,-,N/A,,Haze,40,2013-12-03 19:53:00
3:53 PM,42.1,30.9,65,29.92,5.0,Calm,Calm,-,N/A,,Haze,0,2013-12-03 20:53:00
4:53 PM,41.0,32.0,70,29.92,6.0,Calm,Calm,-,N/A,,Haze,0,2013-12-03 21:53:00
5:53 PM,39.9,32.0,73,29.91,7.0,Calm,Calm,-,N/A,,Clear,0,2013-12-03 22:53:00
6:53 PM,39.9,33.1,77,29.93,6.0,Calm,Calm,-,N/A,,Haze,0,2013-12-03 23:53:00
7:53 PM,41.0,34.0,76,29.93,6.0,Calm,Calm,-,N/A,,Haze,0,2013-12-04 00:53:00
8:53 PM,41.0,35.1,79,29.92,5.0,East,4.6,-,N/A,,Haze,100,2013-12-04 01:53:00
9:53 PM,41.0,35.1,79,29.92,6.0,Variable,3.5,-,N/A,,Haze,0,2013-12-04 02:53:00
10:53 PM,41.0,35.1,79,29.91,5.0,Variable,3.5,-,N/A,,Haze,0,2013-12-04 03:53:00
11:53 PM,41.0,36.0,82,29.92,5.0,Calm,Calm,-,N/A,,Haze,0,2013-12-04 04:53:00